Helicity
104 83 85 133 173 189 189 130 79 59 58 114 120 127 123 201 262 202 11 79 146 158 158 160 145 156 32 51 57 68 86 108 74 62 47 50 51 42 34 30 38 43 40 32 39 30 14 13 25
126 144 171 176 199 204 168 87 40 49 48 108 139 170 154 81 83 81 60 52 136 165 151 147 144 124 53 63 77 73 81 89 92 65 61 62 55 43 41 48 39 42 38 38 42 29 19 15 18
156 189 226 190 168 171 150 93 46 66 60 77 96 157 146 152 145 70 43 68 128 166 168 136 116 88 56 67 84 81 77 87 88 88 77 62 63 60 55 55 53 47 38 39 37 31 30 27 18
206 216 268 229 172 182 207 116 100 90 91 97 124 130 178 159 175 104 132 126 140 192 259 162 90 85 65 72 74 89 83 89 101 116 115 96 61 61 64 58 63 58 41 31 33 34 36 29 25
267 297 251 202 152 252 166 109 72 120 222 171 141 128 157 145 203 191 185 209 240 184 284 400 127 119 67 74 76 81 82 94 110 118 121 137 100 83 73 68 65 68 52 38 33 33 38 30 24
328 333 293 141 191 190 163 100 96 77 90 144 137 102 131 152 145 167 191 251 316 277 319 400 533 342 213 105 84 94 100 94 110 141 124 127 142 115 98 90 76 69 62 47 40 38 38 25 13
328 402 293 230 165 152 157 102 152 79 64 109 139 118 139 125 104 136 160 167 216 334 469 409 421 424 513 387 311 315 283 121 83 112 161 195 239 190 147 105 79 72 63 57 48 45 39 30 24
309 348 265 211 179 123 76 129 88 100 84 96 147 115 88 146 172 206 235 241 235 268 374 624 434 377 439 467 335 291 325 350 333 363 313 262 222 199 179 175 139 86 74 64 60 52 42 34 30
310 373 227 222 225 220 116 98 138 100 116 134 134 110 105 104 247 261 244 237 246 287 320 428 585 424 364 390 388 367 306 323 359 326 325 285 274 247 224 179 127 115 91 71 66 48 47 43 35
375 390 302 245 188 181 138 103 114 120 108 96 118 107 121 158 206 230 220 210 236 280 332 369 442 451 385 324 442 423 413 383 391 384 320 278 274 254 219 220 180 142 132 106 74 52 54 49 36
371 316 334 266 175 122 123 111 112 67 132 118 82 67 95 187 229 248 265 240 247 283 283 322 306 432 383 399 335 406 428 437 368 294 278 298 285 270 232 207 202 165 139 107 113 98 72 53 38
287 224 234 229 211 152 128 125 100 89 89 97 109 103 154 243 254 269 287 253 246 270 270 253 262 261 343 324 340 281 170 164 247 245 234 216 288 317 282 248 236 203 185 150 133 126 98 78 60
262 236 180 129 134 154 178 139 115 120 139 89 64 148 226 310 329 310 252 248 236 211 192 198 214 251 245 242 248 122 150 169 -17 121 122 165 132 248 275 294 251 242 203 174 159 134 135 125 101
214 145 130 136 117 135 140 93 93 161 189 171 201 171 254 288 301 320 297 242 209 179 181 161 167 158 212 225 185 164 156 146 45 62 13 36 48 150 164 260 280 275 259 211 174 145 136 135 131
170 202 205 151 162 147 180 171 205 222 198 203 246 270 270 311 285 262 259 248 189 158 133 132 139 130 138 186 208 190 241 142 131 58 63 96 91 67 97 193 231 300 285 246 203 183 149 136 140
194 196 209 193 138 201 161 212 291 362 200 226 249 292 312 336 305 289 246 226 205 181 184 147 127 119 124 153 208 242 202 209 192 151 130 89 78 64 81 85 140 255 285 262 233 209 188 148 141
244 244 220 208 125 206 264 245 327 386 258 337 302 290 292 285 302 309 279 232 209 187 167 155 157 153 143 144 154 232 156 188 183 151 146 166 100 50 25 78 94 114 162 250 265 274 217 175 153
219 194 169 150 177 277 296 321 316 384 324 335 356 322 295 294 312 266 222 207 194 187 171 146 129 140 157 156 149 178 226 207 191 192 185 157 110 98 57 61 88 52 87 131 205 270 319 251 210
163 132 121 105 163 232 272 322 357 352 398 373 371 364 330 300 276 251 219 190 178 187 176 184 171 164 136 157 189 217 224 210 166 193 218 208 176 134 90 99 98 75 26 33 163 282 248 396 340
148 151 126 121 179 209 250 317 307 337 330 348 332 346 343 300 282 261 228 202 185 149 171 192 204 200 194 178 171 172 183 212 200 180 182 210 219 200 116 133 166 88 -33 0 47 223 240 245 319
122 132 149 123 149 195 239 287 251 294 300 335 367 336 315 309 289 259 235 195 168 164 158 169 187 200 208 190 154 155 160 147 184 214 191 187 209 225 151 122 118 59 35 -91 3 86 142 155 103
110 83 97 142 135 175 182 210 208 224 270 319 323 327 331 320 296 252 250 237 204 185 153 149 167 177 188 196 174 160 147 149 169 181 172 180 167 182 186 161 194 171 74 101 32 41 143 225 170
123 95 91 128 143 166 166 218 169 203 227 251 294 276 267 262 256 236 214 191 165 148 142 125 132 172 194 177 161 167 154 136 124 132 156 175 181 187 227 232 220 222 179 83 92 71 13 39 51
153 141 160 160 186 149 123 177 141 188 213 230 253 246 221 212 209 190 161 144 161 154 141 132 143 166 179 173 168 139 135 135 130 133 135 147 154 164 175 182 177 260 198 138 93 65 71 59 39
124 143 131 160 191 224 259 150 148 198 198 226 189 198 185 185 194 169 176 167 184 189 174 167 160 169 175 172 175 161 132 127 128 125 106 104 122 137 156 161 210 193 198 150 152 129 128 122 103
145 131 156 155 182 221 224 168 181 195 138 199 210 219 197 184 179 174 149 166 181 202 204 184 177 172 186 177 185 171 163 144 138 131 132 123 110 111 115 117 126 140 150 169 143 135 152 155 159
114 124 120 122 146 179 252 282 231 200 212 173 174 204 197 207 194 190 202 196 207 213 206 177 167 174 191 196 184 186 182 172 157 138 126 123 123 105 114 112 109 104 107 124 130 148 161 176 171
141 120 122 117 128 152 181 201 189 177 190 212 224 185 176 189 188 185 177 168 163 157 145 143 136 141 171 191 196 186 183 173 166 146 150 124 116 115 111 114 116 113 106 107 112 127 129 144 160
152 157 159 123 157 149 144 155 142 137 180 176 175 180 201 228 214 179 149 146 132 128 146 145 152 145 154 160 173 186 187 187 171 166 161 151 123 119 114 110 101 106 116 114 105 102 124 129 132
94 109 133 174 175 159 117 141 94 119 142 166 188 197 177 177 177 181 177 162 154 148 152 156 162 157 156 149 155 166 166 167 164 158 155 147 145 121 117 117 112 106 96 102 110 106 103 109 123
Wind_Speed
25 25 20 23 37 43 49 45 40 41 44 45 43 47 53 42 46 47 33 36 36 35 40 34 33 35 24 12 7 6 5 8 2 6 6 8 11 13 16 20 23 25 27 27 29 27 27 27 33
24 21 21 29 51 54 56 45 44 41 38 36 43 44 47 68 53 47 37 32 36 38 39 36 33 34 25 18 8 9 8 5 8 4 2 3 7 11 14 16 18 21 23 24 25 26 24 28 32
22 22 24 40 59 63 60 43 51 48 43 45 41 45 47 57 54 46 39 30 31 34 37 37 37 33 25 18 13 9 10 9 7 11 9 3 2 7 11 13 16 19 21 22 23 24 23 27 27
20 23 33 58 67 60 51 42 45 43 43 40 40 43 46 45 41 42 30 30 21 27 33 37 37 33 26 21 17 14 12 12 10 10 12 12 5 3 7 10 13 17 18 20 21 21 22 24 24
25 31 56 68 73 60 53 48 39 40 37 41 42 49 44 40 32 15 22 30 23 28 24 23 26 30 27 22 21 16 16 14 14 14 16 15 12 4 5 7 11 14 15 17 18 18 20 20 20
33 37 60 75 69 59 57 48 53 49 46 44 43 46 48 37 27 21 15 22 25 30 27 17 17 16 25 31 24 20 16 14 13 12 13 14 11 9 4 4 7 10 13 13 14 17 17 18 18
44 49 70 74 72 67 57 56 53 56 55 54 44 49 45 38 27 22 18 15 18 28 32 23 22 20 17 15 14 15 16 20 14 13 10 10 10 9 8 6 5 6 8 9 10 13 15 15 16
43 54 75 77 76 72 53 56 56 60 68 51 50 55 53 41 26 24 23 21 20 19 27 32 29 26 25 24 20 19 16 14 14 15 18 16 15 11 9 8 9 8 9 10 11 12 12 13 16
41 66 85 81 72 66 50 53 54 52 55 49 47 49 47 27 25 28 29 29 25 22 23 28 35 32 37 28 31 28 25 20 18 18 19 19 20 21 19 16 12 13 12 11 15 14 13 15 17
53 73 78 67 66 70 59 54 52 54 61 64 63 56 43 27 28 32 36 35 34 33 32 29 34 36 43 38 30 32 31 22 18 18 21 24 24 23 23 22 19 17 16 18 21 14 13 16 19
60 82 72 62 62 61 65 63 56 62 74 65 64 56 41 32 36 37 39 37 37 33 31 29 30 36 39 37 36 34 31 27 20 18 23 26 25 27 29 29 27 24 21 20 19 17 19 18 19
74 73 73 64 66 58 63 56 61 62 64 62 63 49 43 37 37 38 38 38 37 34 34 33 31 31 37 38 34 33 24 19 20 26 29 29 29 27 29 29 31 30 29 25 22 20 20 20 18
72 73 68 73 76 71 66 66 65 63 60 54 46 43 40 42 40 37 35 35 36 38 36 36 34 36 38 41 43 34 40 36 30 30 29 28 37 31 32 33 31 31 32 31 30 26 23 22 21
59 72 81 77 70 72 75 71 60 56 55 50 44 41 38 39 40 39 37 38 37 38 39 40 38 36 35 43 43 40 40 40 34 41 39 39 37 37 36 36 36 36 37 37 35 32 30 26 24
66 76 71 73 75 67 59 76 67 60 50 45 42 38 36 37 36 40 40 39 40 39 39 43 43 40 39 37 44 37 41 39 42 42 43 35 35 37 37 39 40 40 40 41 39 38 35 32 29
60 66 84 68 62 66 55 87 65 61 50 45 40 38 37 38 37 35 36 37 38 39 42 43 44 45 46 44 42 38 43 42 45 47 50 44 41 43 40 37 43 42 42 42 43 41 42 36 34
60 74 73 73 60 59 66 74 61 53 48 47 43 40 38 37 36 35 37 38 39 39 40 41 42 45 45 46 44 41 42 42 43 48 51 48 46 41 42 41 39 41 40 41 45 43 44 42 42
69 71 70 72 59 58 64 69 55 50 46 48 46 43 40 40 40 38 36 38 39 39 39 38 39 41 43 43 45 44 45 44 44 45 50 47 47 47 47 42 42 40 40 40 44 44 46 43 48
62 62 70 63 54 55 60 60 58 49 47 47 49 48 48 45 43 40 39 40 41 42 41 42 42 43 44 46 50 51 49 47 45 47 44 45 47 47 49 47 45 44 40 42 46 48 51 51 53
59 68 71 56 49 52 54 57 52 49 51 50 50 50 51 49 48 45 45 43 44 44 45 43 43 44 45 45 46 46 46 45 44 44 45 44 43 45 48 42 44 42 41 41 42 47 49 52 50
57 63 62 64 50 46 48 62 58 50 46 46 47 49 49 53 55 53 52 49 44 44 44 44 44 46 47 46 43 41 41 44 44 44 46 44 41 43 45 42 42 46 46 44 46 45 46 45 46
59 50 59 55 54 70 53 78 66 57 55 52 51 51 53 55 55 56 55 52 49 46 43 42 43 44 45 46 45 45 47 48 47 42 38 40 41 44 46 43 42 44 43 43 45 41 44 47 50
51 45 47 52 60 56 61 68 63 53 64 58 52 50 51 51 53 55 54 53 47 42 40 40 39 42 45 44 45 47 46 43 40 39 39 39 39 40 43 43 43 43 43 43 47 46 44 42 47
43 40 42 44 53 79 62 66 68 62 63 55 50 48 47 48 47 48 47 44 42 38 37 37 38 41 42 41 42 43 42 41 41 41 42 40 39 38 40 41 39 42 40 42 44 42 40 42 43
38 40 54 59 61 70 57 61 63 48 45 47 47 45 44 43 42 41 42 41 39 39 39 38 39 40 40 39 39 39 39 38 39 39 39 40 40 39 39 38 38 39 43 41 41 40 43 43 40
45 47 53 62 62 64 47 64 56 46 34 35 39 43 39 39 38 36 35 35 38 40 41 42 42 42 40 38 37 38 39 38 38 38 38 39 39 40 40 38 37 38 40 40 40 43 46 47 43
46 56 45 51 48 54 58 56 48 42 40 37 37 37 39 39 40 37 35 35 36 39 41 42 43 43 41 40 39 37 38 39 39 38 37 38 39 39 40 39 37 37 38 37 39 39 39 42 48
46 42 53 52 61 67 61 64 65 53 47 41 40 37 34 34 34 35 36 36 36 38 40 41 42 43 43 42 41 40 39 39 40 40 39 38 39 39 39 39 39 39 38 37 37 39 40 38 43
43 48 48 47 52 59 62 60 52 48 43 42 40 38 37 35 34 33 31 31 32 34 36 38 40 42 43 43 42 42 42 42 41 41 41 42 41 40 40 40 40 40 40 40 39 38 40 40 39
36 41 45 56 57 51 53 54 38 38 36 35 36 35 36 34 33 31 30 30 31 32 33 35 38 40 41 42 43 44 44 44 44 43 43 44 45 44 44 43 43 42 41 41 41 42 42 42 43
Wind_Direction
320 316 317 314 291 290 280 282 287 288 282 275 271 262 253 249 252 258 291 270 261 255 251 253 254 254 247 237 241 244 244 245 113 89 99 84 64 53 47 48 47 53 57 52 51 34 24 19 36
319 313 307 296 280 276 279 282 280 280 293 294 272 270 262 251 259 272 277 276 262 256 253 251 253 256 250 240 235 246 248 243 242 249 102 89 68 52 47 38 41 47 53 52 46 36 18 31 36
311 308 287 285 274 270 279 285 281 280 278 286 286 271 266 259 261 261 277 277 270 260 254 251 250 255 250 241 239 244 253 253 254 252 256 274 21 43 42 36 37 48 54 54 46 33 21 40 29
301 295 293 274 272 274 274 291 288 286 279 278 281 276 273 274 277 258 264 269 284 270 259 253 247 252 249 244 247 250 254 256 257 262 260 264 273 18 11 28 39 40 49 56 48 31 27 35 21
290 289 273 275 272 276 275 278 295 284 283 277 274 273 276 276 286 276 265 265 269 270 270 265 246 250 250 250 252 252 255 257 262 262 266 271 266 280 360 11 31 39 49 51 41 25 21 22 12
273 280 275 268 273 276 274 276 275 275 279 278 277 274 273 279 271 264 272 270 268 264 266 257 269 271 258 255 256 258 256 255 259 266 266 270 270 265 289 330 3 29 42 42 31 20 10 9 14
268 271 269 274 276 273 273 269 272 271 270 270 277 274 275 269 262 259 267 280 284 267 264 269 258 265 265 269 267 272 274 261 265 266 266 268 275 267 277 289 324 353 7 6 351 1 1 359 359
275 275 272 271 272 276 277 271 270 268 269 274 274 271 271 270 251 253 265 270 274 284 272 266 264 266 263 261 269 269 270 270 273 274 272 267 270 267 269 282 288 295 310 314 316 325 328 338 343
277 269 268 269 271 275 284 273 273 274 271 271 271 273 280 275 244 246 253 261 265 277 287 282 268 263 262 265 264 266 267 264 267 273 282 276 269 267 266 270 276 284 287 297 295 301 318 317 325
268 266 270 275 274 275 279 275 276 272 267 266 268 273 279 266 244 242 247 253 262 267 274 283 277 267 264 263 260 267 264 262 266 274 280 278 273 271 269 271 274 277 282 284 281 296 314 317 311
272 267 268 279 278 277 275 274 274 271 265 268 269 269 269 257 248 247 251 255 261 266 270 278 280 276 266 267 271 265 265 257 261 275 281 282 277 273 270 270 272 274 280 281 284 289 296 306 309
271 272 270 276 274 279 274 278 273 271 271 274 272 271 263 251 246 247 251 254 258 263 266 272 278 286 274 265 270 250 269 266 264 280 279 278 280 276 273 271 272 273 274 276 279 283 289 297 304
271 272 274 271 270 273 275 273 274 274 277 277 272 267 259 251 248 252 254 258 260 262 266 271 277 280 275 266 262 275 267 272 289 288 285 284 277 276 272 272 273 274 274 275 275 277 283 288 298
283 274 271 270 273 268 267 270 270 274 279 273 269 263 258 251 249 250 254 257 260 265 267 271 274 280 281 272 272 271 281 279 284 273 289 270 281 272 268 271 272 273 276 275 274 275 276 281 288
277 275 277 271 264 269 266 262 262 273 274 270 265 260 255 254 254 252 255 259 263 267 270 271 273 278 281 287 281 288 284 284 284 276 267 285 286 284 278 268 273 272 277 276 274 273 274 276 281
282 275 268 272 267 263 260 258 263 272 263 263 262 258 254 255 255 257 260 262 267 270 273 276 274 276 276 280 285 291 288 290 284 278 272 281 280 278 281 277 274 274 276 277 275 274 272 274 276
279 274 271 270 267 265 254 259 267 270 257 257 258 257 254 254 257 262 264 266 270 273 276 278 278 276 278 277 283 291 292 297 295 282 280 289 280 283 281 280 286 279 278 277 276 275 275 276 275
274 272 272 268 267 263 257 257 265 266 257 254 255 254 253 254 258 262 266 270 273 277 281 282 282 280 280 281 281 285 287 291 294 293 286 285 285 283 281 283 287 287 281 276 278 277 279 278 278
275 275 271 272 271 262 258 255 258 262 258 255 253 254 253 255 261 265 270 273 276 278 281 282 282 282 281 281 279 280 283 284 287 290 294 293 289 286 285 281 282 286 291 283 282 276 276 279 279
273 269 268 273 274 263 257 256 259 259 257 256 255 254 255 256 259 264 269 274 277 277 279 282 283 282 282 283 284 284 283 286 288 291 292 292 293 294 291 289 283 291 282 290 290 280 275 274 281
273 268 265 265 268 271 255 256 255 258 258 258 259 259 259 258 259 263 267 271 277 279 281 282 283 282 282 283 285 286 287 286 289 292 291 294 293 291 287 288 289 288 285 288 285 279 275 278 277
274 275 267 262 261 257 256 254 254 253 253 256 259 260 262 262 264 265 267 270 274 278 283 283 284 284 283 282 283 283 282 281 285 291 297 298 297 291 290 295 295 290 290 288 286 286 279 278 278
278 281 271 263 255 263 253 257 256 250 250 252 258 262 264 267 267 266 268 269 272 278 282 284 286 287 286 284 281 282 283 285 287 289 295 301 302 305 299 294 292 291 290 291 283 278 281 281 275
284 278 276 271 259 254 254 251 256 251 250 251 257 263 266 269 273 271 271 271 270 279 284 286 288 288 288 286 285 283 283 284 286 288 290 295 298 303 302 300 301 292 292 291 289 287 288 289 287
275 269 265 259 254 255 255 252 258 258 257 251 255 262 267 271 276 276 274 271 271 275 281 287 289 289 290 288 287 285 284 285 286 287 287 288 293 297 300 304 303 299 295 295 299 295 291 289 293
269 265 261 259 258 256 259 253 256 258 263 260 262 263 270 271 276 282 282 279 275 277 280 284 287 287 290 289 289 287 286 285 287 289 290 292 293 296 299 302 303 303 299 297 298 292 289 287 288
270 261 268 268 271 263 257 262 264 260 259 263 265 267 270 275 276 283 287 285 283 282 284 285 286 286 288 287 288 289 288 286 287 290 292 293 295 296 298 299 301 302 302 304 300 299 300 299 289
272 274 262 262 261 258 261 259 257 253 255 260 263 268 275 282 285 287 288 289 289 289 288 288 287 286 286 286 287 287 289 289 289 289 290 292 295 296 296 298 298 299 301 302 300 299 301 303 295
278 268 268 269 267 263 260 262 267 256 259 259 264 269 275 281 287 290 295 300 300 297 293 290 290 288 286 286 286 286 286 289 289 289 289 290 292 295 295 296 297 297 298 299 299 298 299 300 301
290 278 273 263 263 269 267 267 277 262 263 265 269 274 277 281 286 292 302 304 305 305 305 300 297 295 291 288 286 286 287 287 287 288 289 289 289 292 294 295 296 297 298 298 297 296 297 297 297